Location: Montebello
(37.3256°N, 122.1789°W)
Time: 20:16:16
(UTC-07:00)

OTV 5 (USA 277) - Visible Passes

Search period start: 19 July 2018 00:00
Search period end: 29 July 2018 00:00
Orbit: 312 x 321 km, 54.5° (Epoch: 05 July)

Date Brightness Start Highest point End Pass type
(mag) Time Alt. Az. Time Alt. Az. Time Alt. Az.
26 Jul ? 05:26:19 10° S 05:28:31 22° SE 05:30:43 10° ENE visible
27 Jul ? 05:40:10 10° SW 05:42:51 81° SE 05:45:33 10° NE visible
28 Jul ? 04:23:00 13° SE 04:23:16 13° SE 04:24:36 10° E visible
